Location: Highridge
(54.0333°N, 114.1333°W)
Time: 05:10:25
(UTC+00:00)

SO-50 - Pass Details

Date: 08 December 2023
Orbit: 608 x 660 km, 64.6° (Epoch: 02 March)

Event Time Altitude Azimuth Distance (km) Brightness Sun altitude
Exits shadow 14:09:23 16° 317° (NW) 1,702 ? -12.5°
Maximum altitude 14:11:45 22° 356° (N) 1,394 ? -12.2°
Drops below altitude 10° 14:15:21 10° 48° (NE) 2,024 ? -11.7°
Sets 14:18:04 0° 64° (ENE) 2,921 ? -11.3°
